Midland, MI

4:23 PM EDT on July 27, 2016 (GMT -0400)
Barstow

Weather History for KIKW - January, 2014

Change the Weather History Date:

Wednesday, January 22, 2014

  Actual Average (KMBS) Record (KMBS)
Temperature  
Mean Temperature 2 °F 22 °F  
Max Temperature 12 °F 29 °F 43 °F (1997)
Min Temperature -8 °F 15 °F -6 °F (2000)
Degree Days  
Heating Degree Days 63    
Month to date heating degree days  
Since 1 July heating degree days  
Cooling Degree Days 0    
Month to date cooling degree days  
Year to date cooling degree days  
Moisture  
Dew Point 0 °F    
Average Humidity 80    
Maximum Humidity 87    
Minimum Humidity 69    
Precipitation  
Precipitation 0.00 in 0.05 in 0.49 in (1999)
Month to date precipitation 1.29  
Year to date precipitation 1.29  
Snow  
Snow 0.00 in - - ()
Month to date snowfall  
Since 1 July snowfall  
Snow Depth -    
Sea Level Pressure  
Sea Level Pressure 29.99 in    
Wind  
Wind Speed 3 mph (SSE)    
Max Wind Speed 10 mph    
Max Gust Speed -    
Visibility 6 miles    
Events Snow    
T = Trace of Precipitation, MM = Missing Value Source: NWS Daily Summary

Daily Weather History Graph

Daily Weather History Graph

Search for Another Location

Airport or City:

Trip Planner

Search our weather history database for the weather conditions in past years. The results will help you decide how hot, cold, wet, or windy it might be!

Date:

Astronomy

Jan. 22, 2014 Rise Set
Actual Time 8:02 AM EST 5:34 PM EST
Civil Twilight 7:31 AM EST 6:06 PM EST
Nautical Twilight 6:56 AM EST 6:41 PM EST
Astronomical Twilight 6:22 AM EST 7:15 PM EST
Moon No Moon Rise 10:50 AM EST (1/22)
Length of Visible Light 10h 34m
Length of Day
9h 31m
Waning Gibbous, 65% of the Moon is Illuminated
Jan 22
Waning Gibbous
Jan 24
Last Quarter
Jan 30
New
Feb 6
First Quarter
Feb 14
Full

Hourly Weather History & Observations

Time (EST) Temp. Windchill Dew Point Humidity Pressure Visibility Wind Dir Wind Speed Gust Speed Precip Events Conditions
12:11 AM -7.2 °F - -11.7 °F 81% 30.17 in 10.0 mi Calm Calm - N/A   Clear
12:31 AM -7.6 °F - -12.1 °F 81% 30.17 in 10.0 mi Calm Calm - N/A   Scattered Clouds
12:52 AM -8.5 °F - -13.2 °F 80% 30.17 in 10.0 mi Calm Calm - N/A   Scattered Clouds
1:11 AM -8.1 °F - -12.6 °F 81% 30.16 in 10.0 mi Calm Calm - N/A   Mostly Cloudy
1:31 AM -8.5 °F - -13.4 °F 79% 30.15 in 10.0 mi Calm Calm - N/A   Overcast
1:52 AM -8.5 °F - -13.2 °F 80% 30.15 in 10.0 mi Calm Calm - N/A   Mostly Cloudy
2:11 AM -8.9 °F - -13.7 °F 79% 30.14 in 10.0 mi Calm Calm - N/A   Scattered Clouds
2:32 AM -8.9 °F - -13.9 °F 79% 30.14 in 10.0 mi Calm Calm - N/A   Scattered Clouds
2:51 AM -8.7 °F - -13.7 °F 79% 30.14 in 10.0 mi Calm Calm - N/A   Mostly Cloudy
3:11 AM -7.6 °F - -12.3 °F 80% 30.14 in 10.0 mi Calm Calm - N/A   Overcast
3:32 AM -7.1 °F - -11.9 °F 79% 30.13 in 10.0 mi Calm Calm - N/A   Overcast
3:51 AM -6.5 °F - -11.2 °F 80% 30.13 in 10.0 mi Calm Calm - N/A   Overcast
4:11 AM -5.8 °F -16.7 °F -10.3 °F 81% 30.12 in 10.0 mi ENE 4.6 mph - N/A   Overcast
4:32 AM -4.0 °F - -8.5 °F 81% 30.10 in 10.0 mi Calm Calm - N/A   Overcast
4:51 AM -1.1 °F - -6.0 °F 80% 30.10 in 10.0 mi Calm Calm - N/A   Overcast
5:11 AM -0.8 °F - -5.8 °F 79% 30.09 in 10.0 mi Calm Calm - N/A   Overcast
5:32 AM 0.5 °F - -4.4 °F 80% 30.09 in 10.0 mi Calm Calm - N/A   Overcast
5:51 AM 1.0 °F - -4.0 °F 79% 30.08 in 10.0 mi Calm Calm - N/A   Overcast
6:11 AM 3.2 °F - -3.6 °F 73% 30.07 in 10.0 mi Calm Calm - N/A   Overcast
6:32 AM 3.2 °F -4.2 °F -4.0 °F 72% 30.07 in 10.0 mi SSE 3.5 mph - N/A   Overcast
6:51 AM 3.2 °F -4.2 °F -4.0 °F 72% 30.06 in 10.0 mi SSE 3.5 mph - N/A   Overcast
7:11 AM 3.7 °F -3.6 °F -3.5 °F 72% 30.06 in 10.0 mi SSE 3.5 mph - N/A   Overcast
7:32 AM 4.1 °F - -3.1 °F 72% 30.05 in 10.0 mi Calm Calm - N/A   Overcast
7:51 AM 4.1 °F -3.2 °F -2.4 °F 75% 30.05 in 10.0 mi SE 3.5 mph - N/A   Overcast
8:10 AM 4.1 °F -3.2 °F -2.6 °F 74% 30.04 in 10.0 mi ESE 3.5 mph - N/A   Overcast
8:31 AM 4.1 °F -5.1 °F -2.7 °F 73% 30.03 in 10.0 mi SE 4.6 mph - N/A   Mostly Cloudy
8:52 AM 4.6 °F -2.5 °F -2.9 °F 71% 30.02 in 10.0 mi SE 3.5 mph - N/A   Scattered Clouds
9:11 AM 5.7 °F -3.2 °F -2.0 °F 70% 30.02 in 10.0 mi SE 4.6 mph - N/A   Mostly Cloudy
9:32 AM 6.4 °F -0.5 °F -1.7 °F 69% 30.03 in 5.0 mi SSE 3.5 mph - N/A   Haze
9:51 AM 6.6 °F -3.7 °F -0.4 °F 73% 30.03 in 1.8 mi SE 5.8 mph - N/A Snow Light Snow
10:11 AM 6.6 °F -3.7 °F 1.2 °F 79% 30.02 in 1.5 mi SE 5.8 mph - N/A Snow Light Snow
10:32 AM 7.5 °F -6.9 °F 2.3 °F 79% 30.01 in 1.5 mi SSE 10.4 mph - N/A Snow Light Snow
10:51 AM 7.3 °F -6.2 °F 2.5 °F 81% 30.00 in 1.5 mi SSE 9.2 mph - N/A Snow Light Snow
11:11 AM 7.3 °F -5.2 °F 2.3 °F 80% 29.99 in 1.8 mi SSE 8.1 mph - N/A Snow Light Snow
11:32 AM 7.7 °F -4.8 °F 2.5 °F 79% 29.98 in 2.5 mi South 8.1 mph - N/A Snow Light Snow
11:51 AM 8.1 °F -3.2 °F 3.0 °F 80% 29.97 in 2.0 mi SSE 6.9 mph - N/A Snow Light Snow
12:11 PM 8.8 °F -4.4 °F 3.9 °F 81% 29.96 in 2.0 mi South 9.2 mph - N/A Snow Light Snow
12:32 PM 9.5 °F -3.5 °F 4.1 °F 79% 29.95 in 2.5 mi South 9.2 mph - N/A Snow Light Snow
12:51 PM 10.0 °F -1.9 °F 4.5 °F 78% 29.93 in 2.5 mi SSE 8.1 mph - N/A Snow Light Snow
1:11 PM 10.8 °F -2.0 °F 5.0 °F 78% 29.92 in 3.0 mi South 9.2 mph - N/A Snow Light Snow
1:32 PM 10.9 °F -0.8 °F 5.5 °F 79% 29.91 in 2.0 mi South 8.1 mph - N/A Snow Light Snow
1:51 PM 11.1 °F -0.6 °F 6.3 °F 81% 29.90 in 1.8 mi SSE 8.1 mph - N/A Snow Light Snow
2:12 PM 11.8 °F 2.5 °F 6.8 °F 80% 29.89 in 2.5 mi South 5.8 mph - N/A Snow Light Snow
2:31 PM 12.2 °F 2.9 °F 6.4 °F 78% 29.89 in 5.0 mi SSE 5.8 mph - N/A Snow Light Snow
2:51 PM 12.6 °F -0.6 °F 6.4 °F 77% 29.88 in 5.0 mi SSE 10.4 mph - N/A Snow Light Snow
3:12 PM 12.2 °F 0.7 °F 6.8 °F 79% 29.87 in 5.0 mi SSE 8.1 mph - N/A Snow Light Snow
3:31 PM 12.2 °F 0.7 °F 6.8 °F 79% 29.88 in 3.0 mi SSE 8.1 mph - N/A Snow Light Snow
3:52 PM 12.6 °F 1.1 °F 7.3 °F 80% 29.88 in 3.0 mi South 8.1 mph - N/A Snow Light Snow
4:12 PM 12.6 °F 1.1 °F 7.7 °F 81% 29.88 in 2.0 mi South 8.1 mph - N/A Snow Light Snow
4:31 PM 12.4 °F 0.9 °F 7.7 °F 82% 29.88 in 1.8 mi South 8.1 mph - N/A Snow Light Snow
4:52 PM 12.2 °F 1.7 °F 7.9 °F 83% 29.88 in 2.5 mi SSE 6.9 mph - N/A Snow Light Snow
5:11 PM 12.2 °F 1.7 °F 7.7 °F 82% 29.88 in 2.5 mi South 6.9 mph - N/A Snow Light Snow
5:32 PM 12.2 °F -0.2 °F 7.7 °F 82% 29.89 in 2.0 mi SSE 9.2 mph - N/A Snow Light Snow
5:36 PM 12.2 °F 0.7 °F 7.7 °F 82% 29.89 in 2.5 mi SSE 8.1 mph - N/A Snow Light Snow
6:11 PM 11.7 °F 2.3 °F 7.3 °F 83% 29.90 in 3.0 mi South 5.8 mph - N/A Snow Light Snow
6:32 PM 11.7 °F 2.3 °F 7.5 °F 83% 29.89 in 4.0 mi SSE 5.8 mph - N/A Snow Light Snow
6:52 PM 11.7 °F 1.1 °F 7.5 °F 83% 29.90 in 2.0 mi SSE 6.9 mph - N/A Snow Light Snow
7:11 PM 11.3 °F 3.3 °F 7.5 °F 85% 29.90 in 3.0 mi South 4.6 mph - N/A Snow Light Snow
7:32 PM 11.3 °F 5.1 °F 7.5 °F 85% 29.91 in 3.0 mi South 3.5 mph - N/A Snow Light Snow
7:52 PM 11.3 °F -1.3 °F 7.3 °F 84% 29.91 in 4.0 mi South 9.2 mph - N/A Snow Light Snow
8:11 PM 10.9 °F 1.4 °F 6.6 °F 83% 29.91 in 5.0 mi South 5.8 mph - N/A Snow Light Snow
8:32 PM 10.9 °F 4.7 °F 6.8 °F 83% 29.91 in 4.0 mi South 3.5 mph - N/A Snow Light Snow
8:52 PM 10.9 °F - 7.3 °F 85% 29.91 in 3.0 mi Calm Calm - N/A Snow Light Snow
9:11 PM 10.9 °F - 7.2 °F 85% 29.91 in 4.0 mi Calm Calm - N/A Snow Light Snow
9:32 PM 10.8 °F - 7.2 °F 85% 29.91 in 5.0 mi Calm Calm - N/A Snow Light Snow
9:52 PM 10.6 °F 4.3 °F 7.0 °F 85% 29.91 in 5.0 mi SSE 3.5 mph - N/A Snow Light Snow
10:11 PM 10.4 °F - 6.8 °F 85% 29.91 in 7.0 mi Calm Calm - N/A Snow Light Snow
10:32 PM 10.2 °F - 6.6 °F 85% 29.92 in 7.0 mi Calm Calm - N/A Snow Light Snow
10:52 PM 10.2 °F - 6.8 °F 86% 29.92 in 3.0 mi Calm Calm - N/A Snow Light Snow
11:11 PM 9.0 °F - 5.7 °F 87% 29.92 in 5.0 mi Calm Calm - N/A Snow Light Snow
11:32 PM 7.5 °F - 4.1 °F 86% 29.92 in 7.0 mi Calm Calm - N/A   Scattered Clouds
11:52 PM 7.7 °F - 4.6 °F 87% 29.93 in 5.0 mi Calm Calm - N/A Snow Light Snow